Time,TemperatureF,DewpointF,PressureIn,WindDirection,WindDirectionDegrees,WindSpeedMPH,WindSpeedGustMPH,Humidity,HourlyPrecipIn,Conditions,Clouds,dailyrainin,SolarRadiationWatts/m^2,SoftwareType,DateUTC
2013-01-13 00:12:00,37.0,34.0,-100.00,NNW,345,18.0,27.0,88,0.29,,,3.28,1.000000,,2013-01-13 06:12:00,
2013-01-13 00:22:00,37.0,34.0,-100.00,NNW,345,18.0,27.0,88,0.29,,,3.28,1.000000,,2013-01-13 06:22:00,
2013-01-13 00:32:00,37.0,34.0,-100.00,NNW,345,18.0,27.0,88,0.29,,,3.28,1.000000,,2013-01-13 06:32:00,
2013-01-13 00:42:00,37.0,34.0,-100.00,NNW,345,18.0,27.0,88,0.29,,,3.28,1.000000,,2013-01-13 06:42:00,
2013-01-13 00:52:00,37.0,34.0,-100.00,NNW,345,18.0,27.0,88,0.29,,,3.28,1.000000,,2013-01-13 06:52:00,
2013-01-13 01:22:00,35.0,32.0,-100.00,North,355,14.0,25.0,90,0.31,,,3.59,1.000000,,2013-01-13 07:22:00,
2013-01-13 01:32:00,35.0,32.0,-100.00,North,355,14.0,25.0,90,0.31,,,3.59,1.000000,,2013-01-13 07:32:00,
2013-01-13 01:42:00,35.0,32.0,-100.00,North,355,14.0,25.0,90,0.31,,,3.59,1.000000,,2013-01-13 07:42:00,
2013-01-13 01:52:00,35.0,32.0,-100.00,North,355,14.0,25.0,90,0.31,,,3.59,1.000000,,2013-01-13 07:52:00,
2013-01-13 02:12:00,36.0,33.0,-100.00,NNE,15,9.0,21.0,90,0.18,,,3.77,1.000000,,2013-01-13 08:12:00,
2013-01-13 02:22:00,36.0,33.0,-100.00,NNE,15,9.0,21.0,90,0.18,,,3.77,1.000000,,2013-01-13 08:22:00,
2013-01-13 02:32:00,36.0,33.0,-100.00,NNE,15,9.0,21.0,90,0.18,,,3.77,1.000000,,2013-01-13 08:32:00,
2013-01-13 02:42:00,36.0,33.0,-100.00,NNE,15,9.0,21.0,90,0.18,,,3.77,1.000000,,2013-01-13 08:42:00,
2013-01-13 02:52:00,36.0,33.0,-100.00,NNE,15,9.0,21.0,90,0.18,,,3.77,1.000000,,2013-01-13 08:52:00,
2013-01-13 03:12:00,37.0,34.0,-100.00,North,360,7.0,17.0,88,0.03,,,3.80,1.000000,,2013-01-13 09:12:00,
2013-01-13 03:22:00,37.0,34.0,-100.00,North,360,7.0,17.0,88,0.03,,,3.80,1.000000,,2013-01-13 09:22:00,
2013-01-13 03:32:00,37.0,34.0,-100.00,North,360,7.0,17.0,88,0.03,,,3.80,1.000000,,2013-01-13 09:32:00,
2013-01-13 03:42:00,37.0,34.0,-100.00,North,360,7.0,17.0,88,0.03,,,3.80,1.000000,,2013-01-13 09:42:00,
2013-01-13 03:52:00,37.0,34.0,-100.00,North,360,7.0,17.0,88,0.03,,,3.80,1.000000,,2013-01-13 09:52:00,
2013-01-13 04:12:00,37.0,34.0,-100.00,North,352,9.0,14.0,88,0.00,,,3.80,1.000000,,2013-01-13 10:12:00,
2013-01-13 04:22:00,37.0,34.0,-100.00,North,352,9.0,14.0,88,0.00,,,3.80,1.000000,,2013-01-13 10:22:00,
2013-01-13 04:32:00,37.0,34.0,-100.00,North,352,9.0,14.0,88,0.00,,,3.80,1.000000,,2013-01-13 10:32:00,
2013-01-13 04:42:00,37.0,34.0,-100.00,North,352,9.0,14.0,88,0.00,,,3.80,1.000000,,2013-01-13 10:42:00,
2013-01-13 04:52:00,37.0,34.0,-100.00,North,352,9.0,14.0,88,0.00,,,3.80,1.000000,,2013-01-13 10:52:00,
2013-01-13 05:12:00,36.0,33.0,-100.00,North,5,9.0,16.0,87,0.00,,,3.80,1.000000,,2013-01-13 11:12:00,
2013-01-13 05:22:00,36.0,33.0,-100.00,North,5,9.0,16.0,87,0.00,,,3.80,1.000000,,2013-01-13 11:22:00,
2013-01-13 05:32:00,36.0,33.0,-100.00,North,5,9.0,16.0,87,0.00,,,3.80,1.000000,,2013-01-13 11:32:00,
2013-01-13 05:42:00,36.0,33.0,-100.00,North,5,9.0,16.0,87,0.00,,,3.80,1.000000,,2013-01-13 11:42:00,
2013-01-13 05:52:00,36.0,33.0,-100.00,North,5,9.0,16.0,87,0.00,,,3.80,1.000000,,2013-01-13 11:52:00,
2013-01-13 06:12:00,36.0,32.0,-100.00,North,0,7.0,16.0,86,0.00,,,3.80,1.000000,,2013-01-13 12:12:00,
2013-01-13 06:22:00,36.0,32.0,-100.00,North,0,7.0,16.0,86,0.00,,,3.80,1.000000,,2013-01-13 12:22:00,
2013-01-13 06:33:00,36.0,32.0,-100.00,North,0,7.0,16.0,86,0.00,,,3.80,1.000000,,2013-01-13 12:33:00,
2013-01-13 06:42:00,36.0,32.0,-100.00,North,0,7.0,16.0,86,0.00,,,3.80,1.000000,,2013-01-13 12:42:00,
2013-01-13 06:52:00,36.0,32.0,-100.00,North,0,7.0,16.0,86,0.00,,,3.80,1.000000,,2013-01-13 12:52:00,
2013-01-13 06:53:00,36.0,33.0,-100.00,North,360,10.0,15.0,87,0.00,,,3.80,1.000000,,2013-01-13 12:53:00,
2013-01-13 07:12:00,36.0,33.0,-100.00,North,360,10.0,15.0,87,0.00,,,3.80,1.000000,,2013-01-13 13:12:00,
2013-01-13 07:22:00,36.0,33.0,-100.00,North,360,10.0,15.0,87,0.00,,,3.80,1.000000,,2013-01-13 13:22:00,
2013-01-13 07:33:00,36.0,33.0,-100.00,North,360,10.0,15.0,87,0.00,,,3.80,1.000000,,2013-01-13 13:33:00,
2013-01-13 07:42:00,36.0,33.0,-100.00,North,360,10.0,15.0,87,0.00,,,3.80,1.000000,,2013-01-13 13:42:00,
2013-01-13 08:22:00,35.0,32.0,-100.00,NNW,334,14.0,20.0,88,0.00,,,3.80,3.000000,,2013-01-13 14:22:00,
2013-01-13 08:33:00,35.0,32.0,-100.00,NNW,334,14.0,20.0,88,0.00,,,3.80,3.000000,,2013-01-13 14:33:00,
2013-01-13 08:43:00,35.0,32.0,-100.00,NNW,334,14.0,20.0,88,0.00,,,3.80,3.000000,,2013-01-13 14:43:00,
2013-01-13 08:52:00,35.0,32.0,-100.00,NNW,334,14.0,20.0,88,0.00,,,3.80,3.000000,,2013-01-13 14:52:00,
2013-01-13 09:12:00,33.0,30.0,-100.00,NNW,345,10.0,20.0,89,0.00,,,3.80,14.000000,,2013-01-13 15:12:00,
2013-01-13 09:23:00,33.0,30.0,-100.00,NNW,345,10.0,20.0,89,0.00,,,3.80,14.000000,,2013-01-13 15:23:00,
2013-01-13 09:33:00,33.0,30.0,-100.00,NNW,345,10.0,20.0,89,0.00,,,3.80,14.000000,,2013-01-13 15:33:00,
2013-01-13 09:43:00,33.0,30.0,-100.00,NNW,345,10.0,20.0,89,0.00,,,3.80,14.000000,,2013-01-13 15:43:00,
2013-01-13 09:52:00,33.0,30.0,-100.00,NNW,345,10.0,20.0,89,0.00,,,3.80,14.000000,,2013-01-13 15:52:00,
2013-01-13 10:23:00,33.0,29.0,-100.00,NNW,337,12.0,18.0,86,0.00,,,3.80,20.000000,,2013-01-13 16:23:00,
2013-01-13 10:33:00,33.0,29.0,-100.00,NNW,337,12.0,18.0,86,0.00,,,3.80,20.000000,,2013-01-13 16:33:00,
2013-01-13 10:43:00,33.0,29.0,-100.00,NNW,337,12.0,18.0,86,0.00,,,3.80,20.000000,,2013-01-13 16:43:00,
2013-01-13 10:52:00,33.0,29.0,-100.00,NNW,337,12.0,18.0,86,0.00,,,3.80,20.000000,,2013-01-13 16:52:00,
2013-01-13 10:53:00,32.0,29.0,-100.00,NNW,330,13.0,21.0,89,0.03,,,3.83,50.000000,,2013-01-13 16:53:00,
2013-01-13 11:22:00,32.0,29.0,-100.00,NNW,330,13.0,21.0,89,0.03,,,3.83,50.000000,,2013-01-13 17:22:00,
2013-01-13 11:33:00,32.0,29.0,-100.00,NNW,330,13.0,21.0,89,0.03,,,3.83,50.000000,,2013-01-13 17:33:00,
2013-01-13 11:42:00,32.0,29.0,-100.00,NNW,330,13.0,21.0,89,0.03,,,3.83,50.000000,,2013-01-13 17:42:00,
2013-01-13 11:53:00,31.0,27.0,-100.00,NNW,331,11.0,20.0,86,0.00,,,3.81,80.000000,,2013-01-13 17:53:00,
2013-01-13 12:12:00,31.0,27.0,-100.00,NNW,331,11.0,20.0,86,0.00,,,3.81,80.000000,,2013-01-13 18:12:00,
2013-01-13 12:23:00,31.0,27.0,-100.00,NNW,331,11.0,20.0,86,0.00,,,3.81,80.000000,,2013-01-13 18:23:00,
2013-01-13 12:33:00,31.0,27.0,-100.00,NNW,331,11.0,20.0,86,0.00,,,3.81,80.000000,,2013-01-13 18:33:00,
2013-01-13 12:42:00,31.0,27.0,-100.00,NNW,331,11.0,20.0,86,0.00,,,3.81,80.000000,,2013-01-13 18:42:00,
2013-01-13 13:12:00,31.0,26.0,-100.00,NNW,336,17.0,25.0,82,0.00,,,3.80,93.000000,,2013-01-13 19:12:00,
2013-01-13 13:22:00,31.0,26.0,-100.00,NNW,336,17.0,25.0,82,0.00,,,3.80,93.000000,,2013-01-13 19:22:00,
2013-01-13 13:33:00,31.0,26.0,-100.00,NNW,336,17.0,25.0,82,0.00,,,3.80,93.000000,,2013-01-13 19:33:00,
2013-01-13 13:43:00,31.0,26.0,-100.00,NNW,336,17.0,25.0,82,0.00,,,3.80,93.000000,,2013-01-13 19:43:00,
2013-01-13 13:52:00,31.0,26.0,-100.00,NNW,336,17.0,25.0,82,0.00,,,3.80,93.000000,,2013-01-13 19:52:00,
2013-01-13 13:53:00,32.0,27.0,-100.00,NNW,335,10.0,18.0,80,0.00,,,3.57,139.000000,,2013-01-13 19:53:00,
2013-01-13 14:12:00,32.0,27.0,-100.00,NNW,335,10.0,18.0,80,0.00,,,3.57,139.000000,,2013-01-13 20:12:00,
2013-01-13 14:22:00,32.0,27.0,-100.00,NNW,335,10.0,18.0,80,0.00,,,3.57,139.000000,,2013-01-13 20:22:00,
2013-01-13 14:33:00,32.0,27.0,-100.00,NNW,335,10.0,18.0,80,0.00,,,3.57,139.000000,,2013-01-13 20:33:00,
2013-01-13 14:43:00,32.0,27.0,-100.00,NNW,335,10.0,18.0,80,0.00,,,3.57,139.000000,,2013-01-13 20:43:00,
2013-01-13 15:12:00,33.0,27.0,-100.00,NNW,330,10.0,16.0,79,0.01,,,3.43,186.000000,,2013-01-13 21:12:00,
2013-01-13 15:23:00,33.0,27.0,-100.00,NNW,330,10.0,16.0,79,0.01,,,3.43,186.000000,,2013-01-13 21:23:00,
2013-01-13 15:33:00,33.0,27.0,-100.00,NNW,330,10.0,16.0,79,0.01,,,3.43,186.000000,,2013-01-13 21:33:00,
2013-01-13 15:43:00,33.0,27.0,-100.00,NNW,330,10.0,16.0,79,0.01,,,3.43,186.000000,,2013-01-13 21:43:00,
2013-01-13 15:52:00,33.0,27.0,-100.00,NNW,330,10.0,16.0,79,0.01,,,3.43,186.000000,,2013-01-13 21:52:00,
2013-01-13 16:12:00,33.0,25.0,-100.00,NNW,327,12.0,18.0,72,0.00,,,3.00,181.000000,,2013-01-13 22:12:00,
2013-01-13 16:22:00,33.0,25.0,-100.00,NNW,327,12.0,18.0,72,0.00,,,3.00,181.000000,,2013-01-13 22:22:00,
2013-01-13 16:33:00,33.0,25.0,-100.00,NNW,327,12.0,18.0,72,0.00,,,3.00,181.000000,,2013-01-13 22:33:00,
2013-01-13 16:43:00,33.0,25.0,-100.00,NNW,327,12.0,18.0,72,0.00,,,3.00,181.000000,,2013-01-13 22:43:00,
2013-01-13 16:52:00,33.0,25.0,-100.00,NNW,327,12.0,18.0,72,0.00,,,3.00,181.000000,,2013-01-13 22:52:00,
2013-01-13 17:12:00,32.0,23.0,-100.00,NNW,331,9.0,18.0,70,0.00,,,2.23,86.000000,,2013-01-13 23:12:00,
2013-01-13 17:23:00,32.0,23.0,-100.00,NNW,331,9.0,18.0,70,0.00,,,2.23,86.000000,,2013-01-13 23:23:00,
2013-01-13 17:33:00,32.0,23.0,-100.00,NNW,331,9.0,18.0,70,0.00,,,2.23,86.000000,,2013-01-13 23:33:00,
2013-01-13 17:42:00,32.0,23.0,-100.00,NNW,331,9.0,18.0,70,0.00,,,2.23,86.000000,,2013-01-13 23:42:00,
2013-01-13 17:52:00,32.0,23.0,-100.00,NNW,331,9.0,18.0,70,0.00,,,2.23,86.000000,,2013-01-13 23:52:00,
2013-01-13 18:12:00,30.0,21.0,-100.00,North,354,9.0,14.0,70,0.00,,,2.16,6.000000,,2013-01-14 00:12:00,
2013-01-13 18:22:00,30.0,21.0,-100.00,North,354,9.0,14.0,70,0.00,,,2.16,6.000000,,2013-01-14 00:22:00,
2013-01-13 18:33:00,30.0,21.0,-100.00,North,354,9.0,14.0,70,0.00,,,2.16,6.000000,,2013-01-14 00:33:00,
2013-01-13 18:43:00,30.0,21.0,-100.00,North,354,9.0,14.0,70,0.00,,,2.16,6.000000,,2013-01-14 00:43:00,
2013-01-13 18:52:00,30.0,21.0,-100.00,North,354,9.0,14.0,70,0.00,,,2.16,6.000000,,2013-01-14 00:52:00,
2013-01-13 19:12:00,28.0,20.0,-100.00,North,357,9.0,14.0,70,0.00,,,1.99,1.000000,,2013-01-14 01:12:00,
2013-01-13 19:22:00,28.0,20.0,-100.00,North,357,9.0,14.0,70,0.00,,,1.99,1.000000,,2013-01-14 01:22:00,
2013-01-13 19:32:00,28.0,20.0,-100.00,North,357,9.0,14.0,70,0.00,,,1.99,1.000000,,2013-01-14 01:32:00,
2013-01-13 19:42:00,28.0,20.0,-100.00,North,357,9.0,14.0,70,0.00,,,1.99,1.000000,,2013-01-14 01:42:00,
2013-01-13 19:52:00,28.0,20.0,-100.00,North,357,9.0,14.0,70,0.00,,,1.99,1.000000,,2013-01-14 01:52:00,
2013-01-13 19:53:00,26.0,18.0,-100.00,North,7,9.0,16.0,70,0.00,,,1.55,1.000000,,2013-01-14 01:53:00,
2013-01-13 20:12:00,26.0,18.0,-100.00,North,7,9.0,16.0,70,0.00,,,1.55,1.000000,,2013-01-14 02:12:00,
2013-01-13 20:22:00,26.0,18.0,-100.00,North,7,9.0,16.0,70,0.00,,,1.55,1.000000,,2013-01-14 02:22:00,
2013-01-13 20:32:00,26.0,18.0,-100.00,North,7,9.0,16.0,70,0.00,,,1.55,1.000000,,2013-01-14 02:32:00,
2013-01-13 20:42:00,26.0,18.0,-100.00,North,7,9.0,16.0,70,0.00,,,1.55,1.000000,,2013-01-14 02:42:00,
2013-01-13 21:22:00,25.0,18.0,-100.00,North,354,8.0,12.0,73,0.00,,,1.19,1.000000,,2013-01-14 03:22:00,
2013-01-13 21:32:00,25.0,18.0,-100.00,North,354,8.0,12.0,73,0.00,,,1.19,1.000000,,2013-01-14 03:32:00,
2013-01-13 21:42:00,25.0,18.0,-100.00,North,354,8.0,12.0,73,0.00,,,1.19,1.000000,,2013-01-14 03:42:00,
2013-01-13 21:52:00,25.0,18.0,-100.00,North,354,8.0,12.0,73,0.00,,,1.19,1.000000,,2013-01-14 03:52:00,
2013-01-13 22:12:00,24.0,17.0,-100.00,North,6,5.0,11.0,74,0.00,,,1.02,1.000000,,2013-01-14 04:12:00,
2013-01-13 22:22:00,24.0,17.0,-100.00,North,6,5.0,11.0,74,0.00,,,1.02,1.000000,,2013-01-14 04:22:00,
2013-01-13 22:32:00,24.0,17.0,-100.00,North,6,5.0,11.0,74,0.00,,,1.02,1.000000,,2013-01-14 04:32:00,
2013-01-13 22:42:00,24.0,17.0,-100.00,North,6,5.0,11.0,74,0.00,,,1.02,1.000000,,2013-01-14 04:42:00,
2013-01-13 22:52:00,24.0,17.0,-100.00,North,6,5.0,11.0,74,0.00,,,1.02,1.000000,,2013-01-14 04:52:00,
2013-01-13 23:12:00,23.0,17.0,-100.00,North,353,6.0,9.0,77,0.00,,,0.85,1.000000,,2013-01-14 05:12:00,
2013-01-13 23:22:00,23.0,17.0,-100.00,North,353,6.0,9.0,77,0.00,,,0.85,1.000000,,2013-01-14 05:22:00,
2013-01-13 23:33:00,23.0,17.0,-100.00,North,353,6.0,9.0,77,0.00,,,0.85,1.000000,,2013-01-14 05:33:00,
2013-01-13 23:42:00,23.0,17.0,-100.00,North,353,6.0,9.0,77,0.00,,,0.85,1.000000,,2013-01-14 05:42:00,
2013-01-13 23:52:00,23.0,17.0,-100.00,North,353,6.0,9.0,77,0.00,,,0.85,1.000000,,2013-01-14 05:52:00,